    Orbital elements:
    2010 JG88                                           PHA, Earth MOID = 0.0497 AU
    Epoch 2010 July 23.0 TT = JDT 2455400.5                 MPC
    M 356.45257              (2000.0)            P               Q
    n   0.61790486     Peri.  106.39839     +0.69137578     +0.66683953
    a   1.3651749      Node   213.39466     -0.68439038     +0.72780379
    e   0.3813581      Incl.   30.34576     +0.23153690     +0.16008337
    P   1.60           H   19.4           G   0.15           U   8
    Residuals in seconds of arc
    100514 703  0.6-  0.2+    100515 H26  0.1+  0.4+    100516 G96  0.3-  0.1-
    100514 703  0.8+  0.8+    100515 H26  0.4+  0.2+    100516 G96  0.4-  0.1-
    100514 703  0.7+  0.3+    100515 G96  0.1-  0.4-    100516 G96  0.3-  0.0
    100514 703  0.0   0.7+    100515 G96  0.3-  0.3-    100516 H10  0.3-  0.0
    100514 703  0.0   0.9-    100515 G96  0.1-  0.3-    100516 651  0.1+  0.3+
    100514 703  1.4-  0.3-    100515 G96  0.1+  0.5-    100516 H10  0.2-  0.1-
    100514 703  0.6-  0.7+    100515 H01  0.0   0.3-    100516 H10  0.4-  0.1+
    100514 658  0.7-  0.7-    100515 H01  0.1-  0.0     100516 651  0.0   0.3+
    100514 658  0.5-  0.7-    100515 H01  0.0   0.2-    100516 651  0.1-  0.4+
    100514 658  0.5-  0.6-    100515 G56 (0.5+  4.8+)   100516 H01  0.2-  0.0
    100514 900  0.5+  0.1+    100515 G56  0.1-  0.1-    100516 H06  0.3+  0.1-
    100514 900  0.1+  0.3-    100515 H01  0.1+  0.2-    100516 H06  0.3+  0.1+
    100514 J01  0.3+  0.0     100515 G56  0.5-  1.7+    100516 H06  0.3+  0.1-
    100514 J01  0.2+  0.0     100515 G56  0.2+  0.9-    100516 H01  0.0   0.1+
    100514 J01  0.2+  0.1-    100515 704  0.8+  0.3-    100516 H01  0.2+  0.1+
    100514 J41  0.4+  0.0     100515 704  1.0+  0.3+    100516 H01  0.2+  0.3+
    100514 J41  0.3+  0.2-    100515 704  1.0+  0.0     100516 926  0.2+  0.1+
    100514 J41  0.7+  0.1-    100515 704  0.6+  0.4-    100516 926  0.1+  0.1+
    100515 H21  0.1-  0.1-    100515 J28  0.2-  0.5+    100516 H10  0.3+  0.4-
    100515 H21  0.1-  0.1-    100515 J28  0.0   0.2-    100516 926  0.0   0.2+
    100515 H21  0.1-  0.1-    100516 J95  0.1-  0.1-    100516 H10  0.3-  0.2+
    100515 H26  0.1-  1.1+    100516 J95  0.1+  0.1-    100516 H10  0.4+  0.1-
    100515 H26  0.3-  0.9+    100516 J95  0.1+  0.0     100516 900  0.6-  0.3-
    100515 H26  0.8-  1.1+    100516 G96  0.1-  0.2-    100516 900  0.7-  0.3-
    
    Ephemeris:
    2010 JG88                a,e,i = 1.37, 0.38, 30                  q = 0.8446
    Date    TT    R. A. (2000) Decl.     Delta      r     Elong.  Phase     V
    2010 05 14    14 26.20   +35 40.0    0.238    1.161   124.2    46.0    18.4
    2010 05 24    14 05.91   +54 00.4    0.277    1.100   101.2    64.5    19.1
    2010 06 03    13 41.70   +65 53.1    0.331    1.041    85.4    76.1    19.7
    2010 06 13    13 07.77   +73 48.6    0.386    0.986    74.6    83.2    20.2
    2010 06 23    12 04.21   +79 21.9    0.438    0.936    66.9    87.6    20.5
    2010 07 03    09 49.01   +82 04.8    0.481    0.894    61.6    90.2    20.8
    2010 07 13    07 21.92   +80 02.3    0.516    0.864    58.2    91.3    20.9
    2010 07 23    06 18.50   +74 42.4    0.543    0.847    56.5    91.2    20.9
    2010 08 02    06 01.64   +67 55.6    0.562    0.846    56.5    89.9    21.0
    2010 08 12    06 03.62   +60 21.5    0.575    0.860    58.0    87.5    20.9
    2010 08 22    06 13.35   +52 16.3    0.581    0.889    61.0    84.2    20.9
    2010 09 01    06 26.02   +43 48.6    0.582    0.929    65.1    80.2    20.9
    2010 09 11    06 39.01   +35 03.6    0.579    0.978    70.3    75.8    20.8
    2010 09 21    06 50.64   +26 04.0    0.574    1.033    76.4    70.9    20.7
    2010 10 01    06 59.86   +16 52.2    0.569    1.092    83.2    65.6    20.7
    2010 10 11    07 05.65   +07 33.6    0.565    1.152    90.6    60.1    20.6
    2010 10 21    07 07.08   -01 40.9    0.565    1.213    98.1    54.4    20.6
    2010 10 31    07 03.30   -10 32.9    0.573    1.272   105.6    48.7    20.5
    2010 11 10    06 53.57   -18 35.6    0.589    1.331   112.3    43.5    20.6
    2010 11 20    06 37.81   -25 16.8    0.616    1.387   117.8    39.1    20.6
    2010 11 30    06 17.19   -30 09.4    0.656    1.441   121.4    35.7    20.7
    2010 12 10    05 54.22   -32 58.7    0.707    1.492   123.0    33.6    20.9
    2010 12 20    05 32.38   -33 49.7    0.769    1.541   122.6    32.5    21.1
    2010 12 30    05 14.56   -33 04.7    0.841    1.586   120.6    32.3    21.4
    2011 01 09    05 02.25   -31 11.3    0.922    1.628   117.4    32.4    21.7
    2011 01 19    04 55.69   -28 36.2    1.010    1.667   113.4    32.8    21.9
    2011 01 29    04 54.28   -25 40.0    1.104    1.703   109.1    33.1    22.2
    
    Carl W. Hergenrother         (C) Copyright 2010 MPC           M.P.E.C. 2010-K04
    

    Read MPEC 2010-K03 Read MPEC 2010-K05


    MPEC number:

    Enter an MPEC number in one of the following forms:

    • 1997-B01 (the full form)
    • J97B01 (the packed version of the full form)
    • B01 (the abbreviated form)